Time,TemperatureF,DewpointF,PressureIn,WindDirection,WindDirectionDegrees,WindSpeedMPH,WindSpeedGustMPH,Humidity,HourlyPrecipIn,Conditions,Clouds,dailyrainin,SoftwareType,DateUTC
2013-04-26 00:02:00,46.0,27.0,30.30,NNW,346,0.0,29.0,47,0.00,,,0.05,,2013-04-26 04:02:00,
2013-04-26 00:12:00,46.0,27.0,30.30,NNW,346,0.0,29.0,47,0.00,,,0.05,,2013-04-26 04:12:00,
2013-04-26 00:23:00,46.0,27.0,30.31,North,0,0.0,0.0,47,0.00,,,0.05,,2013-04-26 04:23:00,
2013-04-26 00:32:00,46.0,27.0,30.31,North,0,0.0,0.0,47,0.00,,,0.05,,2013-04-26 04:32:00,
2013-04-26 00:43:00,46.0,27.0,30.31,North,0,0.0,0.0,47,0.00,,,0.05,,2013-04-26 04:43:00,
2013-04-26 00:53:00,46.0,26.0,30.32,North,354,1.0,23.0,45,0.00,,,0.05,,2013-04-26 04:53:00,
2013-04-26 01:02:00,46.0,26.0,30.32,North,354,1.0,23.0,45,0.00,,,0.05,,2013-04-26 05:02:00,
2013-04-26 01:13:00,46.0,26.0,30.32,North,354,1.0,23.0,45,0.00,,,0.05,,2013-04-26 05:13:00,
2013-04-26 01:22:00,42.0,34.0,30.32,SW,234,0.0,23.0,72,0.00,,,0.05,,2013-04-26 05:22:00,
2013-04-26 01:32:00,42.0,34.0,30.32,SW,234,0.0,23.0,72,0.00,,,0.05,,2013-04-26 05:32:00,
2013-04-26 01:42:00,42.0,34.0,30.32,SW,234,0.0,23.0,72,0.00,,,0.05,,2013-04-26 05:42:00,
2013-04-26 01:52:00,43.0,33.0,30.32,SW,234,0.0,23.0,68,0.00,,,0.05,,2013-04-26 05:52:00,
2013-04-26 02:02:00,43.0,33.0,30.32,SW,234,0.0,23.0,68,0.00,,,0.05,,2013-04-26 06:02:00,
2013-04-26 02:12:00,43.0,33.0,30.32,SW,234,0.0,23.0,68,0.00,,,0.05,,2013-04-26 06:12:00,
2013-04-26 02:21:00,44.0,28.0,30.32,SW,234,0.0,23.0,53,0.00,,,0.05,,2013-04-26 06:21:00,
2013-04-26 02:32:00,44.0,28.0,30.32,SW,234,0.0,23.0,53,0.00,,,0.05,,2013-04-26 06:32:00,
2013-04-26 02:42:00,44.0,28.0,30.32,SW,234,0.0,23.0,53,0.00,,,0.05,,2013-04-26 06:42:00,
2013-04-26 02:52:00,44.0,27.0,30.32,SW,234,0.0,23.0,51,0.00,,,0.05,,2013-04-26 06:52:00,
2013-04-26 03:01:00,44.0,27.0,30.32,SW,234,0.0,23.0,51,0.00,,,0.05,,2013-04-26 07:01:00,
2013-04-26 03:11:00,44.0,27.0,30.32,SW,234,0.0,23.0,51,0.00,,,0.05,,2013-04-26 07:11:00,
2013-04-26 03:22:00,42.0,26.0,30.33,SW,234,0.0,23.0,53,0.00,,,0.05,,2013-04-26 07:22:00,
2013-04-26 03:31:00,42.0,26.0,30.33,SW,234,0.0,23.0,53,0.00,,,0.05,,2013-04-26 07:31:00,
2013-04-26 03:42:00,42.0,26.0,30.33,SW,234,0.0,23.0,53,0.00,,,0.05,,2013-04-26 07:42:00,
2013-04-26 03:52:00,42.0,26.0,30.33,West,275,0.0,23.0,53,0.00,,,0.05,,2013-04-26 07:52:00,
2013-04-26 04:02:00,42.0,26.0,30.33,West,275,0.0,23.0,53,0.00,,,0.05,,2013-04-26 08:02:00,
2013-04-26 04:11:00,42.0,26.0,30.33,West,275,0.0,23.0,53,0.00,,,0.05,,2013-04-26 08:11:00,
2013-04-26 04:22:00,41.0,26.0,30.34,West,275,0.0,23.0,55,0.00,,,0.05,,2013-04-26 08:22:00,
2013-04-26 04:32:00,41.0,26.0,30.34,West,275,0.0,23.0,55,0.00,,,0.05,,2013-04-26 08:32:00,
2013-04-26 04:42:00,41.0,26.0,30.34,West,275,0.0,23.0,55,0.00,,,0.05,,2013-04-26 08:42:00,
2013-04-26 04:52:00,38.0,29.0,30.34,West,275,0.0,23.0,71,0.00,,,0.05,,2013-04-26 08:52:00,
2013-04-26 05:01:00,38.0,29.0,30.34,West,275,0.0,23.0,71,0.00,,,0.05,,2013-04-26 09:01:00,
2013-04-26 05:12:00,38.0,29.0,30.34,West,275,0.0,23.0,71,0.00,,,0.05,,2013-04-26 09:12:00,
2013-04-26 05:21:00,40.0,28.0,30.35,NNE,23,0.0,23.0,62,0.00,,,0.05,,2013-04-26 09:21:00,
2013-04-26 05:33:00,40.0,28.0,30.35,NNE,23,0.0,23.0,62,0.00,,,0.05,,2013-04-26 09:33:00,
2013-04-26 05:43:00,40.0,28.0,30.35,NNE,23,0.0,23.0,62,0.00,,,0.05,,2013-04-26 09:43:00,
2013-04-26 05:53:00,42.0,29.0,30.36,NNE,24,0.0,23.0,59,0.00,,,0.05,,2013-04-26 09:53:00,
2013-04-26 06:03:00,42.0,29.0,30.36,NNE,24,0.0,23.0,59,0.00,,,0.05,,2013-04-26 10:03:00,
2013-04-26 06:12:00,42.0,29.0,30.36,NNE,24,0.0,23.0,59,0.00,,,0.05,,2013-04-26 10:12:00,
2013-04-26 06:23:00,42.0,30.0,30.37,NNE,32,0.0,23.0,63,0.00,,,0.02,,2013-04-26 10:23:00,
2013-04-26 06:33:00,42.0,30.0,30.37,NNE,32,0.0,23.0,63,0.00,,,0.02,,2013-04-26 10:33:00,
2013-04-26 06:42:00,42.0,30.0,30.37,NNE,32,0.0,23.0,63,0.00,,,0.02,,2013-04-26 10:42:00,
2013-04-26 06:52:00,41.0,31.0,30.37,NNE,32,0.0,23.0,67,0.00,,,0.02,,2013-04-26 10:52:00,
2013-04-26 07:02:00,41.0,31.0,30.37,NNE,32,0.0,23.0,67,0.00,,,0.02,,2013-04-26 11:02:00,
2013-04-26 07:11:00,41.0,31.0,30.37,NNE,32,0.0,23.0,67,0.00,,,0.02,,2013-04-26 11:11:00,
2013-04-26 07:22:00,42.0,32.0,30.38,NE,42,0.0,23.0,68,0.00,,,0.02,,2013-04-26 11:22:00,
2013-04-26 07:32:00,42.0,32.0,30.38,NE,42,0.0,23.0,68,0.00,,,0.02,,2013-04-26 11:32:00,
2013-04-26 07:42:00,42.0,32.0,30.38,NE,42,0.0,23.0,68,0.00,,,0.02,,2013-04-26 11:42:00,
2013-04-26 07:52:00,43.0,34.0,30.39,NE,42,0.0,23.0,70,0.00,,,0.02,,2013-04-26 11:52:00,
2013-04-26 08:01:00,43.0,34.0,30.39,NE,42,0.0,23.0,70,0.00,,,0.02,,2013-04-26 12:01:00,
2013-04-26 08:11:00,43.0,34.0,30.39,NE,42,0.0,23.0,70,0.00,,,0.02,,2013-04-26 12:11:00,
2013-04-26 08:21:00,44.0,35.0,30.40,ENE,59,2.0,23.0,70,0.00,,,0.01,,2013-04-26 12:21:00,
2013-04-26 08:32:00,44.0,35.0,30.40,ENE,59,2.0,23.0,70,0.00,,,0.01,,2013-04-26 12:32:00,
2013-04-26 08:42:00,44.0,35.0,30.40,ENE,59,2.0,23.0,70,0.00,,,0.01,,2013-04-26 12:42:00,
2013-04-26 08:52:00,44.0,35.0,30.40,ENE,59,2.0,23.0,70,0.00,,,0.01,,2013-04-26 12:52:00,
2013-04-26 09:22:00,51.0,38.0,30.40,NE,44,0.0,23.0,62,0.00,,,0.00,,2013-04-26 13:22:00,
2013-04-26 09:32:00,51.0,38.0,30.40,NE,44,0.0,23.0,62,0.00,,,0.00,,2013-04-26 13:32:00,
2013-04-26 09:42:00,51.0,38.0,30.40,NE,44,0.0,23.0,62,0.00,,,0.00,,2013-04-26 13:42:00,
2013-04-26 09:52:00,53.0,38.0,30.41,SSW,202,1.0,23.0,57,0.00,,,0.00,,2013-04-26 13:52:00,
2013-04-26 10:01:00,53.0,38.0,30.41,SSW,202,1.0,23.0,57,0.00,,,0.00,,2013-04-26 14:01:00,
2013-04-26 10:11:00,53.0,38.0,30.41,SSW,202,1.0,23.0,57,0.00,,,0.00,,2013-04-26 14:11:00,
2013-04-26 10:21:00,56.0,38.0,30.42,South,182,3.0,23.0,50,0.00,,,0.00,,2013-04-26 14:21:00,
2013-04-26 10:32:00,56.0,38.0,30.42,South,182,3.0,23.0,50,0.00,,,0.00,,2013-04-26 14:32:00,
2013-04-26 10:42:00,56.0,38.0,30.42,South,182,3.0,23.0,50,0.00,,,0.00,,2013-04-26 14:42:00,
2013-04-26 10:52:00,56.0,38.0,30.42,South,182,3.0,23.0,50,0.00,,,0.00,,2013-04-26 14:52:00,
2013-04-26 11:01:00,56.0,38.0,30.42,South,182,3.0,23.0,50,0.00,,,0.00,,2013-04-26 15:01:00,
2013-04-26 11:22:00,56.0,41.0,30.42,SSE,156,2.0,23.0,57,0.00,,,0.00,,2013-04-26 15:22:00,
2013-04-26 11:32:00,57.0,42.0,30.42,ESE,112,6.0,23.0,58,0.00,,,0.00,,2013-04-26 15:32:00,
2013-04-26 11:33:00,56.0,41.0,30.42,SSE,156,2.0,23.0,57,0.00,,,0.00,,2013-04-26 15:33:00,
2013-04-26 11:43:00,56.0,41.0,30.42,SSE,156,2.0,23.0,57,0.00,,,0.00,,2013-04-26 15:43:00,
2013-04-26 11:53:00,57.0,42.0,30.42,ESE,112,6.0,23.0,58,0.00,,,0.00,,2013-04-26 15:53:00,
2013-04-26 12:03:00,57.0,42.0,30.42,ESE,112,6.0,23.0,58,0.00,,,0.00,,2013-04-26 16:03:00,
2013-04-26 12:13:00,57.0,42.0,30.42,ESE,112,6.0,23.0,58,0.00,,,0.00,,2013-04-26 16:13:00,
2013-04-26 12:23:00,57.0,42.0,30.42,ESE,112,6.0,23.0,58,0.00,,,0.00,,2013-04-26 16:23:00,
2013-04-26 12:53:00,57.0,41.0,30.41,South,176,6.0,23.0,55,0.00,,,0.00,,2013-04-26 16:53:00,
2013-04-26 13:02:00,57.0,41.0,30.41,South,176,6.0,23.0,55,0.00,,,0.00,,2013-04-26 17:02:00,
2013-04-26 13:12:00,57.0,41.0,30.41,South,176,6.0,23.0,55,0.00,,,0.00,,2013-04-26 17:12:00,
2013-04-26 13:22:00,57.0,42.0,30.40,SSE,156,6.0,23.0,58,0.00,,,0.00,,2013-04-26 17:22:00,
2013-04-26 13:31:00,57.0,43.0,30.40,SE,141,6.0,23.0,60,0.00,,,0.00,,2013-04-26 17:31:00,
2013-04-26 13:32:00,57.0,42.0,30.40,SSE,156,6.0,23.0,58,0.00,,,0.00,,2013-04-26 17:32:00,
2013-04-26 13:42:00,57.0,42.0,30.40,SSE,156,6.0,23.0,58,0.00,,,0.00,,2013-04-26 17:42:00,
2013-04-26 13:52:00,57.0,43.0,30.40,SE,141,6.0,23.0,60,0.00,,,0.00,,2013-04-26 17:52:00,
2013-04-26 14:02:00,57.0,43.0,30.40,SE,141,6.0,23.0,60,0.00,,,0.00,,2013-04-26 18:02:00,
2013-04-26 14:12:00,57.0,43.0,30.40,SE,141,6.0,23.0,60,0.00,,,0.00,,2013-04-26 18:12:00,
2013-04-26 14:22:00,57.0,43.0,30.40,SE,141,6.0,23.0,60,0.00,,,0.00,,2013-04-26 18:22:00,
2013-04-26 14:52:00,56.0,42.0,30.40,SSW,205,4.0,23.0,59,0.00,,,0.00,,2013-04-26 18:52:00,
2013-04-26 15:02:00,56.0,42.0,30.40,SSW,205,4.0,23.0,59,0.00,,,0.00,,2013-04-26 19:02:00,
2013-04-26 15:12:00,56.0,42.0,30.40,SSW,205,4.0,23.0,59,0.00,,,0.00,,2013-04-26 19:12:00,
2013-04-26 15:22:00,55.0,41.0,30.40,South,187,6.0,23.0,59,0.00,,,0.00,,2013-04-26 19:22:00,
2013-04-26 15:32:00,55.0,41.0,30.40,South,187,6.0,23.0,59,0.00,,,0.00,,2013-04-26 19:32:00,
2013-04-26 15:42:00,55.0,41.0,30.40,South,187,6.0,23.0,59,0.00,,,0.00,,2013-04-26 19:42:00,
2013-04-26 15:52:00,55.0,42.0,30.40,SSE,163,8.0,23.0,61,0.00,,,0.00,,2013-04-26 19:52:00,
2013-04-26 16:01:00,54.0,42.0,30.39,SSW,193,4.0,23.0,63,0.00,,,0.00,,2013-04-26 20:01:00,
2013-04-26 16:02:00,55.0,42.0,30.40,SSE,163,8.0,23.0,61,0.00,,,0.00,,2013-04-26 20:02:00,
2013-04-26 16:11:00,54.0,42.0,30.39,SSW,193,4.0,23.0,63,0.00,,,0.00,,2013-04-26 20:11:00,
2013-04-26 16:22:00,54.0,42.0,30.39,SSW,193,4.0,23.0,63,0.00,,,0.00,,2013-04-26 20:22:00,
2013-04-26 16:32:00,54.0,42.0,30.39,SSW,193,4.0,23.0,63,0.00,,,0.00,,2013-04-26 20:32:00,
2013-04-26 16:42:00,54.0,42.0,30.39,SSW,193,4.0,23.0,63,0.00,,,0.00,,2013-04-26 20:42:00,
2013-04-26 16:52:00,54.0,42.0,30.39,SSW,193,4.0,23.0,63,0.00,,,0.00,,2013-04-26 20:52:00,
2013-04-26 17:22:00,54.0,41.0,30.39,ESE,114,0.0,23.0,62,0.00,,,0.00,,2013-04-26 21:22:00,
2013-04-26 17:33:00,54.0,41.0,30.39,ESE,114,0.0,23.0,62,0.00,,,0.00,,2013-04-26 21:33:00,
2013-04-26 17:42:00,54.0,41.0,30.39,ESE,114,0.0,23.0,62,0.00,,,0.00,,2013-04-26 21:42:00,
2013-04-26 17:53:00,53.0,40.0,30.40,South,185,6.0,23.0,61,0.00,,,0.00,,2013-04-26 21:53:00,
2013-04-26 18:02:00,53.0,40.0,30.40,South,185,6.0,23.0,61,0.00,,,0.00,,2013-04-26 22:02:00,
2013-04-26 18:13:00,53.0,40.0,30.40,South,185,6.0,23.0,61,0.00,,,0.00,,2013-04-26 22:13:00,
2013-04-26 18:23:00,52.0,39.0,30.40,SE,133,0.0,23.0,62,0.00,,,0.00,,2013-04-26 22:23:00,
2013-04-26 18:33:00,52.0,39.0,30.40,SE,133,0.0,23.0,62,0.00,,,0.00,,2013-04-26 22:33:00,
2013-04-26 18:42:00,52.0,39.0,30.40,SE,133,0.0,23.0,62,0.00,,,0.00,,2013-04-26 22:42:00,
2013-04-26 18:52:00,52.0,40.0,30.40,SSE,154,0.0,23.0,64,0.00,,,0.00,,2013-04-26 22:52:00,
2013-04-26 19:02:00,52.0,40.0,30.40,SSE,154,0.0,23.0,64,0.00,,,0.00,,2013-04-26 23:02:00,
2013-04-26 19:12:00,52.0,40.0,30.40,SSE,154,0.0,23.0,64,0.00,,,0.00,,2013-04-26 23:12:00,
2013-04-26 19:21:00,51.0,41.0,30.41,SSE,148,0.0,23.0,69,0.00,,,0.00,,2013-04-26 23:21:00,
2013-04-26 19:32:00,51.0,41.0,30.41,SSE,148,0.0,23.0,69,0.00,,,0.00,,2013-04-26 23:32:00,
2013-04-26 19:42:00,51.0,41.0,30.41,SSE,148,0.0,23.0,69,0.00,,,0.00,,2013-04-26 23:42:00,
2013-04-26 19:52:00,49.0,43.0,30.41,South,169,0.0,23.0,80,0.00,,,0.00,,2013-04-26 23:52:00,
2013-04-26 20:01:00,49.0,43.0,30.41,South,169,0.0,23.0,80,0.00,,,0.00,,2013-04-27 00:01:00,
2013-04-26 20:11:00,49.0,43.0,30.41,South,169,0.0,23.0,80,0.00,,,0.00,,2013-04-27 00:11:00,
2013-04-26 20:21:00,47.0,44.0,30.42,ENE,71,0.0,23.0,90,0.00,,,0.00,,2013-04-27 00:21:00,
2013-04-26 20:32:00,47.0,44.0,30.42,ENE,71,0.0,23.0,90,0.00,,,0.00,,2013-04-27 00:32:00,
2013-04-26 20:42:00,47.0,44.0,30.42,ENE,71,0.0,23.0,90,0.00,,,0.00,,2013-04-27 00:42:00,
2013-04-26 20:52:00,46.0,44.0,30.43,ENE,71,0.0,23.0,94,0.00,,,0.00,,2013-04-27 00:52:00,
2013-04-26 21:01:00,46.0,44.0,30.43,ENE,71,0.0,23.0,94,0.00,,,0.00,,2013-04-27 01:01:00,
2013-04-26 21:12:00,46.0,44.0,30.43,ENE,71,0.0,23.0,94,0.00,,,0.00,,2013-04-27 01:12:00,
2013-04-26 21:21:00,45.0,45.0,30.43,ESE,102,2.0,23.0,99,0.00,,,0.00,,2013-04-27 01:21:00,
2013-04-26 21:32:00,45.0,45.0,30.43,ESE,102,2.0,23.0,99,0.00,,,0.00,,2013-04-27 01:32:00,
2013-04-26 21:42:00,45.0,45.0,30.43,ESE,102,2.0,23.0,99,0.00,,,0.00,,2013-04-27 01:42:00,
2013-04-26 21:52:00,45.0,45.0,30.43,ESE,102,2.0,23.0,99,0.00,,,0.00,,2013-04-27 01:52:00,
2013-04-26 22:22:00,44.0,44.0,30.45,ENE,65,0.0,23.0,99,0.00,,,0.00,,2013-04-27 02:22:00,
2013-04-26 22:32:00,44.0,44.0,30.45,ENE,65,0.0,23.0,99,0.00,,,0.00,,2013-04-27 02:32:00,
2013-04-26 22:42:00,44.0,44.0,30.45,ENE,65,0.0,23.0,99,0.00,,,0.00,,2013-04-27 02:42:00,
2013-04-26 22:52:00,43.0,43.0,30.45,ENE,58,0.0,23.0,99,0.00,,,0.00,,2013-04-27 02:52:00,
2013-04-26 23:02:00,43.0,43.0,30.45,ENE,58,0.0,23.0,99,0.00,,,0.00,,2013-04-27 03:02:00,
2013-04-26 23:11:00,43.0,43.0,30.45,ENE,58,0.0,23.0,99,0.00,,,0.00,,2013-04-27 03:11:00,
2013-04-26 23:22:00,43.0,43.0,30.45,ENE,58,0.0,23.0,99,0.00,,,0.00,,2013-04-27 03:22:00,
2013-04-26 23:33:00,43.0,43.0,30.45,ENE,58,0.0,23.0,99,0.00,,,0.00,,2013-04-27 03:33:00,
2013-04-26 23:43:00,43.0,43.0,30.45,ENE,58,0.0,23.0,99,0.00,,,0.00,,2013-04-27 03:43:00,
2013-04-26 23:53:00,43.0,43.0,30.45,East,99,0.0,23.0,99,0.00,,,0.00,,2013-04-27 03:53:00,